Showing default

NUVIEW ALPHA, 62455

Orbit data source: Space-Track

NUVIEW ALPHA, 62455 is a UK payload satellite in GEO that was launched on Sun, 29 Dec 2024 UTC via an FALCON 9 launch vehicle from the Air Force Eastern Test Range (AFETR). Payload-class satellites include a variety of spacecraft equipped with specific instruments for various scientific and technological missions. These include communications satellites like Starlink; space stations such as the ISS; scientific satellites like the Hubble; Earth observation satellites from companies like Planet Labs, Umbra, and HawkEye 360; GPS; miniature CubeSats for education and research; and military/defense satellites.

Loading next visibility...
Identifier
62455, 2024-252B
Orbit
GEO
Country
Flag of UKUK
Related business
Manufacturer
Astranis
Mission
Operational Commercial Communications
Bus & Motor
MICROGEO, EP
Mass
400 kg wet, 400 kg dry
Launch date (UTC)
2024-12-29 (2 years ago)
Launch vehicle
FALCON 9
Launch site
Air Force Eastern Test Range (AFETR)
Object type
Payload
Rocket body
Debris
Shape & HBR
Box + 22 Pan, 5.0 m
Radar Cross Section
41.175 m²

Expand to show TLE details & history
Last TLE update: 14 hours ago

TLE from 14 hours ago
0 NUVIEW ALPHA
1 62455U 24252B   26195.32875781 -.00000222  00000-0  00000-0 0  9998
2 62455   0.0425  24.3128 0000969  55.1873 247.9382  1.00271129  4099
Epoch: 2026-07-14T07:53Z
TLE epoch observation values (Epoch: 2026-07-14T07:53:24.674Z)
Latitude
-0.0597°
Longitude
-83.10864°
Altitude
35,787.832 km
Speed
3.075 km/s
True Right ascension
21h 49m 46s
True Declination
0° 03' 35"
Sunlit
Object was in daylight at epoch
Visualization orbit readout
Latitude
Unknown
Longitude
Unknown
Altitude
Unknown
Speed
Unknown
Apparent Right ascension
Unknown
Apparent Declination
Unknown
Sunlit
N/A
Visualization observer readout
Local Sidereal Time
10:41:51
Azimuth
Unknown
Elevation
Unknown
Doppler factor
Unknown
Orbital elements
Apogee altitude
35,791.935 km
Perigee altitude
35,783.763 km
Semi-major axis
42,165.986 km
Eccentricity
0.0001
Inclination
0.0425°
RAAN
24.3128°
Arg. of periapsis
55.1873°
True anomaly
247.92791°
Mean anomaly
247.9382°
Eccentric anomaly
247.93305°
Mean motion
0.25067 °/min
Orbital period
1,436.16 mins
BSTAR
0
Loading maneuver chart data...
Computing Atmospheric mass density...
Loading historical data...
Loading historical data...
Loading historical data...
Loading historical data...
Loading historical data...
Loading historical data...
Loading historical data...
Other satellites on launch #252 in the year 2024 (2024-12-29 UTC)

Documentation

Showing up to 5 results
|